This is the latest recevied weather packets stored in our database for station/object EA5DFV. If no packets are shown the sender has not sent any weather packets the latest 10 day(s).
| Time | Temp. | Humidity | Pressure | Rain* | Wind** | Luminosity | Snow |
|---|---|---|---|---|---|---|---|
| 1777994608 | 20.56° C | 69% | 1009 hPa | 0 mm | - | 153 W/m² | - |
| 1777994301 | 20.56° C | 68% | 1009 hPa | 0 mm | - | 151 W/m² | - |
| 1777994017 | 21.11° C | 71% | 1009 hPa | 0 mm | - | 158 W/m² | - |
| 1777993708 | 21.11° C | 71% | 1009.1 hPa | 0 mm | - | 183 W/m² | - |
| 1777993400 | 21.11° C | 72% | 1009.1 hPa | 0 mm | - | 172 W/m² | - |
| 1777993111 | 21.11° C | 73% | 1009 hPa | 0 mm | - | 153 W/m² | - |
| 1777992807 | 21.11° C | 75% | 1009.1 hPa | 0 mm | - | 269 W/m² | - |
| 1777992501 | 20.56° C | 75% | 1009.2 hPa | 0 mm | - | 165 W/m² | - |
| 1777992215 | 20.56° C | 75% | 1009.1 hPa | 0 mm | - | 153 W/m² | - |
| 1777991908 | 21.11° C | 73% | 1009.1 hPa | 0 mm | - | 158 W/m² | - |
| 1777991605 | 21.11° C | 73% | 1009.2 hPa | 0 mm | - | 153 W/m² | - |
| 1777991315 | 21.11° C | 75% | 1009.2 hPa | 0 mm | - | 171 W/m² | - |
| 1777991009 | 21.11° C | 74% | 1009.3 hPa | 0 mm | - | 163 W/m² | - |
| 1777990700 | 21.67° C | 73% | 1009.3 hPa | 0 mm | - | 181 W/m² | - |
| 1777990416 | 21.67° C | 74% | 1009.4 hPa | 0 mm | - | 253 W/m² | - |
| 1777989817 | 21.11° C | 77% | 1009.4 hPa | 0 mm | - | 339 W/m² | - |
| 1777989507 | 21.11° C | 77% | 1009.5 hPa | 0 mm | - | 257 W/m² | - |
| 1777989202 | 21.11° C | 78% | 1009.5 hPa | 0 mm | - | 912 W/m² | - |
| 1777988913 | 20.56° C | 79% | 1009.6 hPa | 1.02 mm | - | 879 W/m² | - |
| 1777988603 | 20° C | 80% | 1009.8 hPa | 1.02 mm | - | 891 W/m² | - |
| 1777988314 | 20° C | 81% | 1009.9 hPa | 1.02 mm | - | 914 W/m² | - |
| 1777988003 | 19.44° C | 82% | 1009.9 hPa | 1.02 mm | - | 258 W/m² | - |
| 1777987714 | 18.89° C | 81% | 1010 hPa | 1.02 mm | - | 223 W/m² | - |
| 1777987407 | 19.44° C | 81% | 1010 hPa | 3.05 mm | - | 213 W/m² | - |
| 1777987117 | 18.89° C | 81% | 1010.1 hPa | 3.05 mm | - | 186 W/m² | - |
* Rain latest hour (hover to see other rain measurements)
** Current wind speed in m/s (hover to see current wind gust speed)